Regional Weather Roundup
Issued by NWS Jackson, KY

Home | Current Version | Previous Version | Graphics & Text | Print | Product List | Glossary On
Versions: 1 2 3 4 5 6 7 8 9 10 11 12 13 14 15 16 17 18 19 20 21 22 23 24 25 26 27 28 29 30 31 32 33 34 35 36 37 38 39 40 41 42 43 44 45 46 47 48 49 50
000
ASUS43 KJKL 250111
RWRJKL

EAST KENTUCKY HOURLY WEATHER ROUNDUP
NATIONAL WEATHER SERVICE JACKSON KY
900 PM EDT THU JUL 24 2014

NOTE: "FAIR" INDICATES FEW OR NO CLOUDS BELOW 12,000 FEET WITH
NO SIGNIFICANT WEATHER AND/OR OBSTRUCTIONS TO VISIBILITY.

* THESE REPORTS ARE NOT UNDER NWS QUALITY CONTROL AND MAY NOT
  REPORT WEATHER SUCH AS PRECIPITATION AND FOG.

KYZ079-080-083-085-087-088-110-112-115-119-120-250200
...EASTERN KENTUCKY...

CITY           SKY/WX    TMP DP  RH WIND       PRES   REMARKS
JACKSON        CLEAR     66  61  84 CALM      30.04R
LONDON         CLEAR     68  61  78 CALM      30.05R
SOMERSET*      CLEAR     68  61  77 CALM      30.04R
MONTICELLO*    CLEAR     67  64  90 CALM      30.04R FOG
MIDDLESBORO*   CLOUDY    67  63  85 CALM      30.02F
HARLAN APT*    PTCLDY    63  61  94 MISG      30.03F
HAZARD APT*    MOCLDY    66  64  94 CALM      30.04
PIKEVILLE APT* CLEAR     63  63 100 CALM      30.03S FOG
BIG SANDY*     CLEAR     65  63  90 CALM      30.02S
MOREHEAD APT*    N/A     68  59  73 CALM      30.05R
$$

KYZ035-036-041-042-044-050-067-078-099-250200
...CENTRAL KENTUCKY...

CITY           SKY/WX    TMP DP  RH WIND       PRES   REMARKS
MT STERLING*   CLEAR     64  59  82 CALM      30.05R
FLEMING/MASON* MOCLDY    70  55  60 CALM      30.05R
DANVILLE*      MOCLDY    70  61  73 CALM      30.04S
RICHMOND*      MOCLDY    70  61  73 CALM      30.03R
LEXINGTON      PTCLDY    70  54  56 NE5       30.04R
FRANKFORT      PTCLDY    72  54  53 N5        30.04R
$$

KYZ091>093-OHZ055-061-077-WVZ005-015-034-035-042-250200
...SOUTHERN OHIO/WEST VIRGINIA...

CITY           SKY/WX    TMP DP  RH WIND       PRES   REMARKS
COVINGTON      PTCLDY    71  54  54 NW8       30.05R
COLUMBUS       MOCLDY    71  52  50 N8        30.03R
DAYTON         PTCLDY    67  53  61 N6        30.08R
WILMINGTON     CLEAR     67  54  63 N8        30.05R
HUNTINGTON     CLEAR     67  63  87 SW3       30.00R
CHARLESTON     PTCLDY    66  64  93 CALM      29.99F
PINEVILLE*     PTCLDY    65  64  97 MISG      30.08R
BECKLEY        CLOUDY    62  60  93 N6        30.05S FOG
BLUEFIELD      CLOUDY    65  60  84 N3        30.07R
$$

VAZ002-007-008-TNZ017-027-036-066-071-250200
...SOUTHWEST VIRGINIA/EAST TENNESSEE...

CITY           SKY/WX    TMP DP  RH WIND       PRES   REMARKS
WISE*          CLOUDY    61  61 100 N6        30.08S FOG
JONESVILLE*      N/A     66  63  88 CALM      30.04S
ABINGDON*      CLOUDY    67  64  89 N5        30.04R
BRISTOL        PTCLDY    67  62  84 NW6       30.02R
KNOXVILLE      PTCLDY    72  64  76 N8        29.99R
OAK RIDGE      CLEAR     71  63  75 VRB5      30.01R
CROSSVILLE     MOCLDY    70  63  78 N9        30.05R
NASHVILLE      MOCLDY    80  60  50 N13       29.99R
$$

...KEY TO REMARKS...
VSB - VISIBILITY IN MILES
WCI - WIND CHILL INDEX
HX  - HEAT INDEX

$$


USA.gov is the U.S. government's official web portal to all federal, state and local government web resources and services.